TimeMST,TemperatureF,Dew PointF,Humidity,Sea Level PressureIn,VisibilityMPH,Wind Direction,Wind SpeedMPH,Gust SpeedMPH,PrecipitationIn,Events,Conditions,WindDirDegrees,DateUTC
12:53 AM,57.0,24.1,28,29.85,10.0,Variable,3.5,-,N/A,,Clear,0,2013-04-10 07:53:00
1:53 AM,55.0,21.0,27,29.85,10.0,NNW,5.8,-,N/A,,Clear,330,2013-04-10 08:53:00
2:53 AM,54.0,21.9,29,29.86,10.0,North,5.8,-,N/A,,Clear,350,2013-04-10 09:53:00
3:53 AM,52.0,24.1,34,29.86,10.0,North,3.5,-,N/A,,Clear,360,2013-04-10 10:53:00
4:53 AM,51.1,26.1,38,29.88,10.0,SSE,4.6,-,N/A,,Clear,160,2013-04-10 11:53:00
5:53 AM,50.0,27.0,41,29.88,10.0,Calm,Calm,-,N/A,,Clear,0,2013-04-10 12:53:00
6:53 AM,52.0,28.9,41,29.92,10.0,WSW,3.5,-,N/A,,Clear,250,2013-04-10 13:53:00
7:53 AM,57.9,28.9,33,29.94,10.0,Variable,4.6,-,N/A,,Clear,0,2013-04-10 14:53:00
8:53 AM,61.0,30.0,31,29.96,10.0,East,4.6,-,N/A,,Clear,90,2013-04-10 15:53:00
9:53 AM,64.0,30.9,29,29.96,10.0,East,8.1,-,N/A,,Clear,80,2013-04-10 16:53:00
10:53 AM,66.0,30.0,26,29.97,10.0,NE,10.4,-,N/A,,Clear,40,2013-04-10 17:53:00
11:53 AM,66.0,28.9,25,29.96,10.0,Calm,Calm,-,N/A,,Mostly Cloudy,0,2013-04-10 18:53:00
12:53 PM,68.0,27.0,21,29.94,10.0,ENE,6.9,-,N/A,,Mostly Cloudy,60,2013-04-10 19:53:00
1:53 PM,69.1,27.0,21,29.92,10.0,SE,11.5,-,N/A,,Partly Cloudy,140,2013-04-10 20:53:00
2:53 PM,71.1,26.1,19,29.90,10.0,SW,6.9,-,N/A,,Scattered Clouds,220,2013-04-10 21:53:00
3:53 PM,73.0,25.0,17,29.88,10.0,East,5.8,-,N/A,,Partly Cloudy,80,2013-04-10 22:53:00
4:53 PM,72.0,24.1,17,29.88,10.0,SW,3.5,-,N/A,,Clear,230,2013-04-10 23:53:00
5:53 PM,73.0,21.0,14,29.87,10.0,SW,3.5,-,N/A,,Clear,230,2013-04-11 00:53:00
6:53 PM,70.0,26.1,19,29.88,10.0,SW,6.9,-,N/A,,Clear,220,2013-04-11 01:53:00
7:53 PM,66.9,28.0,23,29.90,10.0,South,3.5,-,N/A,,Clear,170,2013-04-11 02:53:00
8:53 PM,66.9,27.0,22,29.92,10.0,Calm,Calm,-,N/A,,Clear,0,2013-04-11 03:53:00
9:53 PM,64.9,28.9,26,29.93,10.0,Calm,Calm,-,N/A,,Clear,0,2013-04-11 04:53:00
10:53 PM,63.0,30.9,30,29.93,10.0,NE,3.5,-,N/A,,Clear,50,2013-04-11 05:53:00
11:53 PM,62.1,30.9,31,29.94,10.0,Calm,Calm,-,N/A,,Clear,0,2013-04-11 06:53:00